Volver al catálogo

ATLAS 5 CENTAUR R/B

LostMEO
NORAD 40295·ROCKET BODY·🇺🇸 United States

Lanzado Oct 29, 2014 desde Cape Canaveral Space Force Station

Loading…

Próximos Pases (próximas 24 horas)

TLE

ObsoletoSource: Space-Track

Época: Aug 4, 2026, 11:30 UTC

1 40295U 14068B   26216.47973538 -.00000032  00000-0  00000+0 0  9997
2 40295  57.3056  45.2350 0118107 355.5283   4.4158  1.91825319 82445

Sigue ATLAS 5 CENTAUR R/B en tiempo real con AllMySat

Download on the App Store